Time,TemperatureF,DewpointF,PressureIn,WindDirection,WindDirectionDegrees,WindSpeedMPH,WindSpeedGustMPH,Humidity,HourlyPrecipIn,Conditions,Clouds,dailyrainin,SoftwareType,DateUTC
2013-03-03 00:00:00,34.9,33.7,29.77,NNW,327,2.2,5.8,95,0.00,,,0.00,VWS V14.01,2013-03-03 05:00:00,
2013-03-03 00:05:00,34.9,33.7,29.77,NNW,327,5.4,5.8,95,0.00,,,0.00,VWS V14.01,2013-03-03 05:05:00,
2013-03-03 00:10:00,34.9,33.7,29.77,NNW,327,7.2,7.2,95,0.00,,,0.00,VWS V14.01,2013-03-03 05:10:00,
2013-03-03 00:20:00,34.9,33.7,29.77,NNW,327,2.2,7.2,95,0.00,,,0.00,VWS V14.01,2013-03-03 05:20:00,
2013-03-03 00:25:00,34.9,33.7,29.77,NNW,327,5.4,6.3,95,0.00,,,0.00,VWS V14.01,2013-03-03 05:25:00,
2013-03-03 00:35:00,34.9,33.7,29.77,NNW,327,4.0,6.3,95,0.00,,,0.00,VWS V14.01,2013-03-03 05:35:00,
2013-03-03 00:45:00,34.9,33.7,29.77,NNW,327,6.3,6.3,95,0.00,,,0.00,VWS V14.01,2013-03-03 05:45:00,
2013-03-03 00:50:00,34.9,33.7,29.77,NNW,327,4.0,7.6,95,0.00,,,0.00,VWS V14.01,2013-03-03 05:50:00,
2013-03-03 00:55:00,34.9,33.7,29.77,NNW,327,2.7,7.6,95,0.00,,,0.00,VWS V14.01,2013-03-03 05:55:00,
2013-03-03 01:05:00,34.9,33.7,29.77,NNW,327,2.7,7.2,95,0.00,,,0.00,VWS V14.01,2013-03-03 06:05:00,
2013-03-03 01:10:00,34.9,33.7,29.77,NNW,327,4.9,7.2,95,0.00,,,0.00,VWS V14.01,2013-03-03 06:10:00,
2013-03-03 01:20:00,34.9,33.7,29.77,NNW,327,6.3,7.6,95,0.00,,,0.00,VWS V14.01,2013-03-03 06:20:00,
2013-03-03 01:30:00,34.9,33.7,29.77,NNW,327,4.0,7.6,95,0.00,,,0.00,VWS V14.01,2013-03-03 06:30:00,
2013-03-03 01:35:00,34.9,33.7,29.77,NNW,327,4.9,7.6,95,0.00,,,0.00,VWS V14.01,2013-03-03 06:35:00,
2013-03-03 01:45:00,34.9,33.7,29.77,NNW,327,3.1,8.1,95,0.00,,,0.00,VWS V14.01,2013-03-03 06:45:00,
2013-03-03 01:55:00,34.9,33.7,29.77,NNW,327,4.0,8.1,95,0.00,,,0.00,VWS V14.01,2013-03-03 06:55:00,
2013-03-03 02:05:00,34.9,33.7,29.77,NNW,327,3.6,6.3,95,0.00,,,0.00,VWS V14.01,2013-03-03 07:05:00,
2013-03-03 02:15:00,34.9,33.7,29.77,NNW,327,4.0,6.3,95,0.00,,,0.00,VWS V14.01,2013-03-03 07:15:00,
2013-03-03 02:20:00,34.9,33.7,29.77,NNW,327,0.0,6.3,95,0.00,,,0.00,VWS V14.01,2013-03-03 07:20:00,
2013-03-03 02:25:00,34.9,33.7,29.74,NNW,327,4.0,5.8,95,0.00,,,0.00,VWS V14.01,2013-03-03 07:25:00,
2013-03-03 02:30:00,34.9,33.7,29.74,NNW,327,4.0,6.3,95,0.00,,,0.00,VWS V14.01,2013-03-03 07:30:00,
2013-03-03 02:40:00,34.9,33.7,29.74,NNW,327,3.1,6.3,95,0.00,,,0.00,VWS V14.01,2013-03-03 07:40:00,
2013-03-03 02:50:00,34.9,33.7,29.74,NNW,327,4.0,6.3,95,0.00,,,0.00,VWS V14.01,2013-03-03 07:50:00,
2013-03-03 02:55:00,34.9,33.7,29.74,NNW,327,5.8,6.3,95,0.00,,,0.00,VWS V14.01,2013-03-03 07:55:00,
2013-03-03 03:05:00,34.9,33.7,29.74,NNW,327,4.0,6.3,95,0.00,,,0.00,VWS V14.01,2013-03-03 08:05:00,
2013-03-03 03:10:00,34.9,33.7,29.74,NNW,327,2.2,6.3,95,0.00,,,0.00,VWS V14.01,2013-03-03 08:10:00,
2013-03-03 03:15:00,34.9,33.7,29.74,NNW,327,5.4,6.3,95,0.00,,,0.00,VWS V14.01,2013-03-03 08:15:00,
2013-03-03 03:20:00,34.9,33.7,29.74,NNW,327,2.2,6.3,95,0.00,,,0.00,VWS V14.01,2013-03-03 08:20:00,
2013-03-03 03:30:00,34.9,33.7,29.74,NNW,327,5.4,6.3,95,0.00,,,0.00,VWS V14.01,2013-03-03 08:30:00,
2013-03-03 03:40:00,34.9,33.7,29.74,NNW,327,4.0,5.8,95,0.00,,,0.00,VWS V14.01,2013-03-03 08:40:00,
2013-03-03 03:50:00,34.9,33.7,29.74,NNW,327,2.7,5.8,95,0.00,,,0.00,VWS V14.01,2013-03-03 08:50:00,
2013-03-03 04:00:00,34.9,33.7,29.74,NNW,327,0.0,4.9,95,0.00,,,0.00,VWS V14.01,2013-03-03 09:00:00,
2013-03-03 04:05:00,34.9,33.7,29.74,NNW,327,0.0,4.0,95,0.00,,,0.00,VWS V14.01,2013-03-03 09:05:00,
2013-03-03 04:15:00,34.9,33.7,29.74,NNW,327,4.0,4.0,95,0.00,,,0.00,VWS V14.01,2013-03-03 09:15:00,
2013-03-03 04:25:00,34.9,33.7,29.74,NNW,327,0.0,4.0,95,0.00,,,0.00,VWS V14.01,2013-03-03 09:25:00,
2013-03-03 04:35:00,34.9,33.7,29.74,NNW,327,2.7,5.4,95,0.00,,,0.00,VWS V14.01,2013-03-03 09:35:00,
2013-03-03 04:40:00,34.9,33.7,29.74,NNW,327,2.7,5.4,95,0.00,,,0.00,VWS V14.01,2013-03-03 09:40:00,
2013-03-03 04:45:00,34.9,33.7,29.74,NNW,327,2.2,4.0,95,0.00,,,0.00,VWS V14.01,2013-03-03 09:45:00,
2013-03-03 04:50:00,34.9,33.7,29.74,NNW,327,0.0,4.5,95,0.00,,,0.00,VWS V14.01,2013-03-03 09:50:00,
2013-03-03 04:55:00,34.9,33.7,29.74,NNW,327,2.7,5.4,95,0.00,,,0.00,VWS V14.01,2013-03-03 09:55:00,
2013-03-03 05:00:00,34.9,33.7,29.74,NNW,327,2.7,5.4,95,0.00,,,0.00,VWS V14.01,2013-03-03 10:00:00,
2013-03-03 05:10:00,34.9,33.7,29.74,NNW,327,0.0,5.4,95,0.00,,,0.00,VWS V14.01,2013-03-03 10:10:00,
2013-03-03 05:15:00,34.9,33.7,29.74,NNW,327,4.0,5.4,95,0.00,,,0.00,VWS V14.01,2013-03-03 10:15:00,
2013-03-03 05:25:00,34.9,33.7,29.74,NNW,327,0.0,5.4,95,0.00,,,0.00,VWS V14.01,2013-03-03 10:25:00,
2013-03-03 05:35:00,34.9,33.7,29.74,NNW,327,2.7,5.8,95,0.00,,,0.00,VWS V14.01,2013-03-03 10:35:00,
2013-03-03 05:40:00,34.9,33.7,29.74,NNW,327,4.0,6.3,95,0.00,,,0.00,VWS V14.01,2013-03-03 10:40:00,
2013-03-03 05:50:00,34.9,33.7,29.74,NNW,327,2.7,6.3,95,0.00,,,0.00,VWS V14.01,2013-03-03 10:50:00,
2013-03-03 06:00:00,34.9,33.7,29.74,NNW,327,0.0,5.8,95,0.00,,,0.00,VWS V14.01,2013-03-03 11:00:00,
2013-03-03 06:10:00,34.9,33.7,29.74,NNW,327,5.8,6.3,95,0.00,,,0.00,VWS V14.01,2013-03-03 11:10:00,
2013-03-03 06:20:00,34.9,33.7,29.74,NNW,327,4.0,6.3,95,0.00,,,0.00,VWS V14.01,2013-03-03 11:20:00,
2013-03-03 06:25:00,34.9,33.7,29.74,NNW,327,7.2,7.2,95,0.00,,,0.00,VWS V14.01,2013-03-03 11:25:00,
2013-03-03 06:35:00,34.9,33.7,29.74,NNW,327,4.0,8.1,95,0.00,,,0.00,VWS V14.01,2013-03-03 11:35:00,
2013-03-03 06:45:00,34.9,33.7,29.77,NNW,327,6.3,8.1,95,0.00,,,0.00,VWS V14.01,2013-03-03 11:45:00,
2013-03-03 06:55:00,34.9,33.7,29.77,NNW,327,3.6,8.1,95,0.00,,,0.00,VWS V14.01,2013-03-03 11:55:00,
2013-03-03 07:00:00,34.9,33.7,29.77,NNW,327,4.0,8.1,95,0.00,,,0.00,VWS V14.01,2013-03-03 12:00:00,
2013-03-03 07:10:00,34.9,33.7,29.77,NNW,327,3.6,9.6,95,0.00,,,0.00,VWS V14.01,2013-03-03 12:10:00,
2013-03-03 07:20:00,34.9,33.7,29.77,NNW,327,4.0,9.6,95,0.00,,,0.00,VWS V14.01,2013-03-03 12:20:00,
2013-03-03 07:30:00,34.9,33.7,29.77,NNW,327,6.3,10.5,95,0.00,,,0.00,VWS V14.01,2013-03-03 12:30:00,
2013-03-03 07:35:00,34.9,33.7,29.77,NNW,327,6.3,10.5,95,0.00,,,0.00,VWS V14.01,2013-03-03 12:35:00,
2013-03-03 07:45:00,34.9,33.7,29.77,NNW,327,10.1,11.0,95,0.00,,,0.00,VWS V14.01,2013-03-03 12:45:00,
2013-03-03 07:55:00,34.9,33.7,29.77,NNW,327,5.4,11.0,95,0.00,,,0.00,VWS V14.01,2013-03-03 12:55:00,
2013-03-03 08:00:00,34.9,33.7,29.77,NNW,327,5.4,8.7,95,0.00,,,0.00,VWS V14.01,2013-03-03 13:00:00,
2013-03-03 08:10:00,34.9,33.7,29.77,NNW,327,3.6,8.7,95,0.00,,,0.00,VWS V14.01,2013-03-03 13:10:00,
2013-03-03 08:20:00,34.9,33.7,29.77,NNW,327,4.0,10.1,95,0.00,,,0.00,VWS V14.01,2013-03-03 13:20:00,
2013-03-03 08:30:00,34.9,33.7,29.77,NNW,327,6.3,11.0,95,0.00,,,0.00,VWS V14.01,2013-03-03 13:30:00,
2013-03-03 08:40:00,34.9,33.7,29.77,NNW,327,5.8,8.7,95,0.00,,,0.00,VWS V14.01,2013-03-03 13:40:00,
2013-03-03 08:45:00,34.9,33.7,29.77,NNW,327,5.4,8.7,95,0.00,,,0.00,VWS V14.01,2013-03-03 13:45:00,
2013-03-03 08:55:00,34.9,33.7,29.77,NNW,327,5.8,8.7,95,0.00,,,0.00,VWS V14.01,2013-03-03 13:55:00,
2013-03-03 09:05:00,34.9,33.7,29.77,NNW,327,8.1,8.7,95,0.00,,,0.00,VWS V14.01,2013-03-03 14:05:00,
2013-03-03 09:15:00,34.9,33.7,29.77,NNW,327,4.9,8.3,95,0.00,,,0.00,VWS V14.01,2013-03-03 14:15:00,
2013-03-03 09:20:00,34.9,33.7,29.77,NNW,327,4.0,8.3,95,0.00,,,0.00,VWS V14.01,2013-03-03 14:20:00,
2013-03-03 09:30:00,34.9,33.7,29.77,NNW,327,5.4,8.7,95,0.00,,,0.00,VWS V14.01,2013-03-03 14:30:00,
2013-03-03 09:35:00,34.9,33.7,29.77,NNW,327,4.0,10.5,95,0.00,,,0.00,VWS V14.01,2013-03-03 14:35:00,
2013-03-03 09:40:00,34.9,33.7,29.77,NNW,327,5.8,12.8,95,0.00,,,0.00,VWS V14.01,2013-03-03 14:40:00,
2013-03-03 09:50:00,34.9,33.7,29.77,NNW,327,10.5,12.8,95,0.00,,,0.00,VWS V14.01,2013-03-03 14:50:00,
2013-03-03 09:55:00,34.9,33.7,29.77,NNW,327,6.3,11.0,95,0.00,,,0.00,VWS V14.01,2013-03-03 14:55:00,
2013-03-03 10:05:00,34.9,33.7,29.77,NNW,327,8.3,11.0,95,0.00,,,0.00,VWS V14.01,2013-03-03 15:05:00,
2013-03-03 10:15:00,34.9,33.7,29.77,NNW,327,6.3,11.0,95,0.00,,,0.00,VWS V14.01,2013-03-03 15:15:00,
2013-03-03 10:20:00,34.9,33.7,29.77,NNW,327,10.5,11.0,95,0.00,,,0.00,VWS V14.01,2013-03-03 15:20:00,
2013-03-03 10:30:00,34.9,33.7,29.77,NNW,327,8.7,11.9,95,0.00,,,0.00,VWS V14.01,2013-03-03 15:30:00,
2013-03-03 10:40:00,34.9,33.7,29.77,NNW,327,7.6,11.0,95,0.00,,,0.00,VWS V14.01,2013-03-03 15:40:00,
2013-03-03 10:50:00,34.9,33.7,29.77,NNW,327,5.8,11.0,95,0.00,,,0.00,VWS V14.01,2013-03-03 15:50:00,
2013-03-03 11:00:00,34.9,33.7,29.77,NNW,327,8.7,13.2,95,0.00,,,0.00,VWS V14.01,2013-03-03 16:00:00,
2013-03-03 11:05:00,34.9,33.7,29.77,NNW,327,8.1,13.2,95,0.00,,,0.00,VWS V14.01,2013-03-03 16:05:00,
2013-03-03 11:10:00,34.9,33.7,29.77,NNW,327,6.3,11.9,95,0.00,,,0.00,VWS V14.01,2013-03-03 16:10:00,
2013-03-03 11:15:00,34.9,33.7,29.77,NNW,327,7.2,12.3,95,0.00,,,0.00,VWS V14.01,2013-03-03 16:15:00,
2013-03-03 11:25:00,34.9,33.7,29.77,NNW,327,8.3,13.2,95,0.00,,,0.00,VWS V14.01,2013-03-03 16:25:00,
2013-03-03 11:35:00,34.9,33.7,29.77,NNW,327,6.3,13.2,95,0.00,,,0.00,VWS V14.01,2013-03-03 16:35:00,
2013-03-03 11:40:00,34.9,33.7,29.77,NNW,327,6.3,11.4,95,0.00,,,0.00,VWS V14.01,2013-03-03 16:40:00,
2013-03-03 11:50:00,34.9,33.7,29.77,NNW,327,8.3,12.8,95,0.00,,,0.00,VWS V14.01,2013-03-03 16:50:00,
2013-03-03 11:55:00,34.9,33.7,29.77,NNW,327,12.3,12.8,95,0.00,,,0.00,VWS V14.01,2013-03-03 16:55:00,
2013-03-03 12:00:00,34.9,33.7,29.77,NNW,327,6.3,12.8,95,0.00,,,0.00,VWS V14.01,2013-03-03 17:00:00,
2013-03-03 12:10:00,34.9,33.7,29.77,NNW,327,6.3,14.5,95,0.00,,,0.00,VWS V14.01,2013-03-03 17:10:00,
2013-03-03 12:15:00,34.9,33.7,29.77,NNW,327,8.1,14.5,95,0.00,,,0.00,VWS V14.01,2013-03-03 17:15:00,
2013-03-03 12:25:00,34.9,33.7,29.74,NNW,327,8.1,11.9,95,0.00,,,0.00,VWS V14.01,2013-03-03 17:25:00,
2013-03-03 12:35:00,34.9,33.7,29.74,NNW,327,8.1,11.0,95,0.00,,,0.00,VWS V14.01,2013-03-03 17:35:00,
2013-03-03 12:40:00,34.9,33.7,29.74,NNW,327,7.6,11.0,95,0.00,,,0.00,VWS V14.01,2013-03-03 17:40:00,
2013-03-03 12:50:00,34.9,33.7,29.74,NNW,327,10.1,11.9,95,0.00,,,0.00,VWS V14.01,2013-03-03 17:50:00,
2013-03-03 13:00:00,34.9,33.7,29.74,NNW,327,7.6,13.2,95,0.00,,,0.00,VWS V14.01,2013-03-03 18:00:00,
2013-03-03 13:10:00,34.9,33.7,29.74,NNW,327,7.6,12.8,95,0.00,,,0.00,VWS V14.01,2013-03-03 18:10:00,
2013-03-03 13:20:00,34.9,33.7,29.74,NNW,327,10.5,13.2,95,0.00,,,0.00,VWS V14.01,2013-03-03 18:20:00,
2013-03-03 13:25:00,34.9,33.7,29.74,NNW,327,7.2,13.2,95,0.00,,,0.00,VWS V14.01,2013-03-03 18:25:00,
2013-03-03 13:30:00,34.9,33.7,29.74,NNW,327,5.4,13.2,95,0.00,,,0.00,VWS V14.01,2013-03-03 18:30:00,
2013-03-03 13:35:00,34.9,33.7,29.74,NNW,327,8.1,13.2,95,0.00,,,0.00,VWS V14.01,2013-03-03 18:35:00,
2013-03-03 13:45:00,34.9,33.7,29.74,NNW,327,11.9,12.8,95,0.00,,,0.00,VWS V14.01,2013-03-03 18:45:00,
2013-03-03 13:55:00,34.9,33.7,29.74,NNW,327,8.7,12.8,95,0.00,,,0.00,VWS V14.01,2013-03-03 18:55:00,
2013-03-03 14:00:00,34.9,33.7,29.74,NNW,327,14.1,14.1,95,0.00,,,0.00,VWS V14.01,2013-03-03 19:00:00,
2013-03-03 14:10:00,34.9,33.7,29.74,NNW,327,11.0,15.0,95,0.00,,,0.00,VWS V14.01,2013-03-03 19:10:00,
2013-03-03 14:15:00,34.9,33.7,29.74,NNW,327,8.3,15.0,95,0.00,,,0.00,VWS V14.01,2013-03-03 19:15:00,
2013-03-03 14:20:00,34.9,33.7,29.74,NNW,327,11.0,14.5,95,0.00,,,0.00,VWS V14.01,2013-03-03 19:20:00,
2013-03-03 14:25:00,34.9,33.7,29.74,NNW,327,8.3,14.5,95,0.00,,,0.00,VWS V14.01,2013-03-03 19:25:00,
2013-03-03 14:35:00,34.9,33.7,29.74,NNW,327,8.7,13.2,95,0.00,,,0.00,VWS V14.01,2013-03-03 19:35:00,
2013-03-03 14:45:00,34.9,33.7,29.74,NNW,327,12.8,13.2,95,0.00,,,0.00,VWS V14.01,2013-03-03 19:45:00,
2013-03-03 14:55:00,34.9,33.7,29.74,NNW,327,8.7,13.2,95,0.00,,,0.00,VWS V14.01,2013-03-03 19:55:00,
2013-03-03 15:05:00,34.9,33.7,29.74,NNW,327,8.3,13.6,95,0.00,,,0.00,VWS V14.01,2013-03-03 20:05:00,
2013-03-03 15:10:00,34.9,33.7,29.74,NNW,327,8.7,13.6,95,0.00,,,0.00,VWS V14.01,2013-03-03 20:10:00,
2013-03-03 15:20:00,34.9,33.7,29.74,NNW,327,8.3,11.0,95,0.00,,,0.00,VWS V14.01,2013-03-03 20:20:00,
2013-03-03 15:30:00,34.9,33.7,29.74,NNW,327,3.6,11.9,95,0.00,,,0.00,VWS V14.01,2013-03-03 20:30:00,
2013-03-03 15:35:00,34.9,33.7,29.74,NNW,327,11.0,12.8,95,0.00,,,0.00,VWS V14.01,2013-03-03 20:35:00,
2013-03-03 15:45:00,34.9,33.7,29.74,NNW,327,8.7,14.1,95,0.00,,,0.00,VWS V14.01,2013-03-03 20:45:00,
2013-03-03 15:50:00,34.9,33.7,29.74,NNW,327,10.5,14.1,95,0.00,,,0.00,VWS V14.01,2013-03-03 20:50:00,
2013-03-03 15:55:00,34.9,33.7,29.74,NNW,327,6.3,12.3,95,0.00,,,0.00,VWS V14.01,2013-03-03 20:55:00,
2013-03-03 16:00:00,34.9,33.7,29.74,NNW,327,13.2,13.2,95,0.00,,,0.00,VWS V14.01,2013-03-03 21:00:00,
2013-03-03 16:10:00,34.9,33.7,29.77,NNW,327,8.7,13.2,95,0.00,,,0.00,VWS V14.01,2013-03-03 21:10:00,
2013-03-03 16:20:00,34.9,33.7,29.77,NNW,327,8.1,11.4,95,0.00,,,0.00,VWS V14.01,2013-03-03 21:20:00,
2013-03-03 16:30:00,34.9,33.7,29.77,NNW,327,10.1,10.5,95,0.00,,,0.00,VWS V14.01,2013-03-03 21:30:00,
2013-03-03 16:40:00,34.9,33.7,29.77,NNW,327,7.6,10.5,95,0.00,,,0.00,VWS V14.01,2013-03-03 21:40:00,
2013-03-03 16:45:00,34.9,33.7,29.77,NNW,327,6.3,10.5,95,0.00,,,0.00,VWS V14.01,2013-03-03 21:45:00,
2013-03-03 16:55:00,34.9,33.7,29.77,NNW,327,6.3,10.1,95,0.00,,,0.00,VWS V14.01,2013-03-03 21:55:00,
2013-03-03 17:05:00,34.9,33.7,29.77,NNW,327,8.1,10.1,95,0.00,,,0.00,VWS V14.01,2013-03-03 22:05:00,
2013-03-03 17:15:00,34.9,33.7,29.74,NNW,327,8.7,8.7,95,0.00,,,0.00,VWS V14.01,2013-03-03 22:15:00,
2013-03-03 17:25:00,34.9,33.7,29.77,NNW,327,5.8,8.7,95,0.00,,,0.00,VWS V14.01,2013-03-03 22:25:00,
2013-03-03 17:30:00,34.9,33.7,29.77,NNW,327,8.1,8.7,95,0.00,,,0.00,VWS V14.01,2013-03-03 22:30:00,
2013-03-03 17:40:00,34.9,33.7,29.77,NNW,327,7.6,10.5,95,0.00,,,0.00,VWS V14.01,2013-03-03 22:40:00,
2013-03-03 17:50:00,34.9,33.7,29.77,NNW,327,5.4,11.0,95,0.00,,,0.00,VWS V14.01,2013-03-03 22:50:00,
2013-03-03 17:55:00,34.9,33.7,29.77,NNW,327,5.8,11.0,95,0.00,,,0.00,VWS V14.01,2013-03-03 22:55:00,
2013-03-03 18:05:00,34.9,33.7,29.77,NNW,327,5.8,8.7,95,0.00,,,0.00,VWS V14.01,2013-03-03 23:05:00,
2013-03-03 18:15:00,34.9,33.7,29.77,NNW,327,5.8,8.3,95,0.00,,,0.00,VWS V14.01,2013-03-03 23:15:00,
2013-03-03 18:20:00,34.9,33.7,29.77,NNW,327,5.4,10.1,95,0.00,,,0.00,VWS V14.01,2013-03-03 23:20:00,
2013-03-03 18:30:00,34.9,33.7,29.77,NNW,327,5.8,11.0,95,0.00,,,0.00,VWS V14.01,2013-03-03 23:30:00,
2013-03-03 18:40:00,34.9,33.7,29.77,NNW,327,11.0,12.3,95,0.00,,,0.00,VWS V14.01,2013-03-03 23:40:00,
2013-03-03 18:50:00,34.9,33.7,29.77,NNW,327,6.3,11.0,95,0.00,,,0.00,VWS V14.01,2013-03-03 23:50:00,
2013-03-03 19:00:00,34.9,33.7,29.77,NNW,327,10.5,11.0,95,0.00,,,0.00,VWS V14.01,2013-03-04 00:00:00,
2013-03-03 19:05:00,34.9,33.7,29.77,NNW,327,5.4,13.2,95,0.00,,,0.00,VWS V14.01,2013-03-04 00:05:00,
2013-03-03 19:15:00,34.9,33.7,29.77,NNW,327,5.4,13.2,95,0.00,,,0.00,VWS V14.01,2013-03-04 00:15:00,
2013-03-03 19:25:00,34.9,33.7,29.77,NNW,327,8.1,12.3,95,0.00,,,0.00,VWS V14.01,2013-03-04 00:25:00,
2013-03-03 19:35:00,34.9,33.7,29.77,NNW,327,8.1,13.2,95,0.00,,,0.00,VWS V14.01,2013-03-04 00:35:00,
2013-03-03 19:40:00,34.9,33.7,29.77,NNW,327,10.1,13.2,95,0.00,,,0.00,VWS V14.01,2013-03-04 00:40:00,
2013-03-03 19:50:00,34.9,33.7,29.77,NNW,327,8.7,12.8,95,0.00,,,0.00,VWS V14.01,2013-03-04 00:50:00,
2013-03-03 20:00:00,34.9,33.7,29.80,NNW,327,8.7,14.1,95,0.00,,,0.00,VWS V14.01,2013-03-04 01:00:00,
2013-03-03 20:10:00,34.9,33.7,29.80,NNW,327,8.7,13.2,95,0.00,,,0.00,VWS V14.01,2013-03-04 01:10:00,
2013-03-03 20:15:00,34.9,33.7,29.80,NNW,327,5.4,13.2,95,0.00,,,0.00,VWS V14.01,2013-03-04 01:15:00,
2013-03-03 20:25:00,34.9,33.7,29.80,NNW,327,12.8,12.8,95,0.00,,,0.00,VWS V14.01,2013-03-04 01:25:00,
2013-03-03 20:35:00,34.9,33.7,29.80,NNW,327,10.5,12.8,95,0.00,,,0.00,VWS V14.01,2013-03-04 01:35:00,
2013-03-03 20:40:00,34.9,33.7,29.80,NNW,327,5.4,12.3,95,0.00,,,0.00,VWS V14.01,2013-03-04 01:40:00,
2013-03-03 20:50:00,34.9,33.7,29.80,NNW,327,8.1,12.3,95,0.00,,,0.00,VWS V14.01,2013-03-04 01:50:00,
2013-03-03 21:00:00,34.9,33.7,29.80,NNW,327,5.8,13.2,95,0.00,,,0.00,VWS V14.01,2013-03-04 02:00:00,
2013-03-03 21:10:00,34.9,33.7,29.80,NNW,327,8.7,12.3,95,0.00,,,0.00,VWS V14.01,2013-03-04 02:10:00,
2013-03-03 21:20:00,34.9,33.7,29.80,NNW,327,8.3,12.8,95,0.00,,,0.00,VWS V14.01,2013-03-04 02:20:00,
2013-03-03 21:25:00,34.9,33.7,29.80,NNW,327,11.0,13.2,95,0.00,,,0.00,VWS V14.01,2013-03-04 02:25:00,
2013-03-03 21:35:00,34.9,33.7,29.80,NNW,327,8.7,13.2,95,0.00,,,0.00,VWS V14.01,2013-03-04 02:35:00,
2013-03-03 21:45:00,34.9,33.7,29.77,NNW,327,6.3,13.2,95,0.00,,,0.00,VWS V14.01,2013-03-04 02:45:00,
2013-03-03 21:55:00,34.9,33.7,29.80,NNW,327,10.1,10.5,95,0.00,,,0.00,VWS V14.01,2013-03-04 02:55:00,
2013-03-03 22:00:00,34.9,33.7,29.80,NNW,327,6.3,10.5,95,0.00,,,0.00,VWS V14.01,2013-03-04 03:00:00,
2013-03-03 22:10:00,34.9,33.7,29.80,NNW,327,5.8,8.7,95,0.00,,,0.00,VWS V14.01,2013-03-04 03:10:00,
2013-03-03 22:15:00,34.9,33.7,29.80,NNW,327,5.4,10.5,95,0.00,,,0.00,VWS V14.01,2013-03-04 03:15:00,
2013-03-03 22:20:00,34.9,33.7,29.80,NNW,327,6.3,10.5,95,0.00,,,0.00,VWS V14.01,2013-03-04 03:20:00,
2013-03-03 22:30:00,34.9,33.7,29.77,NNW,327,5.8,8.7,95,0.00,,,0.00,VWS V14.01,2013-03-04 03:30:00,
2013-03-03 22:35:00,34.9,33.7,29.77,NNW,327,6.3,8.7,95,0.00,,,0.00,VWS V14.01,2013-03-04 03:35:00,
2013-03-03 22:45:00,34.9,33.7,29.77,NNW,327,5.4,10.5,95,0.00,,,0.00,VWS V14.01,2013-03-04 03:45:00,
2013-03-03 22:55:00,34.9,33.7,29.77,NNW,327,7.6,11.4,95,0.00,,,0.00,VWS V14.01,2013-03-04 03:55:00,
2013-03-03 23:00:00,34.9,33.7,29.77,NNW,327,6.7,11.4,95,0.00,,,0.00,VWS V14.01,2013-03-04 04:00:00,
2013-03-03 23:10:00,34.9,33.7,29.77,NNW,327,8.1,12.8,95,0.00,,,0.00,VWS V14.01,2013-03-04 04:10:00,
2013-03-03 23:20:00,34.9,33.7,29.77,NNW,327,11.0,13.6,95,0.00,,,0.00,VWS V14.01,2013-03-04 04:20:00,
2013-03-03 23:30:00,34.9,33.7,29.77,NNW,327,10.1,13.2,95,0.00,,,0.00,VWS V14.01,2013-03-04 04:30:00,
2013-03-03 23:40:00,34.9,33.7,29.77,NNW,327,6.3,13.6,95,0.00,,,0.00,VWS V14.01,2013-03-04 04:40:00,
2013-03-03 23:45:00,34.9,33.7,29.77,NNW,327,7.6,15.4,95,0.00,,,0.00,VWS V14.01,2013-03-04 04:45:00,
2013-03-03 23:55:00,34.9,33.7,29.77,NNW,327,7.6,15.4,95,0.00,,,0.00,VWS V14.01,2013-03-04 04:55:00,